North Las Vegas, NV

10:29 AM PST on February 12, 2016 (GMT -0800)
North Las Vegas

Weather History for KVGT - January, 2013

Change the Weather History Date:

Friday, January 11, 2013

  Actual Average Record
Temperature  
Mean Temperature 38 °F 47 °F  
Max Temperature 43 °F 57 °F 68 °F (2009)
Min Temperature 33 °F 38 °F 29 °F (2011)
Degree Days  
Heating Degree Days 27 18  
Month to date heating degree days 203  
Since 1 July heating degree days 1083  
Cooling Degree Days 0 0  
Month to date cooling degree days 0  
Year to date cooling degree days 0  
Moisture  
Dew Point 7 °F    
Average Humidity 28    
Maximum Humidity 39    
Minimum Humidity 19    
Precipitation  
Precipitation 0.00 in 0.03 in 0.53 in (2015)
Month to date precipitation 0.30  
Year to date precipitation 0.30  
Sea Level Pressure  
Sea Level Pressure 30.06 in    
Wind  
Wind Speed 12 mph (NNW)    
Max Wind Speed 18 mph    
Max Gust Speed 26 mph    
Visibility 10 miles    
Events      
T = Trace of Precipitation, MM = Missing Value Source: NWS Daily Summary

Daily Weather History Graph

Daily Weather History Graph

Search for Another Location

Airport or City:

Trip Planner

Search our weather history database for the weather conditions in past years. The results will help you decide how hot, cold, wet, or windy it might be!

Date:

Astronomy

Jan. 11, 2013 Rise Set
Actual Time 6:52 AM PST 4:46 PM PST
Civil Twilight 6:23 AM PST 5:14 PM PST
Nautical Twilight 5:52 AM PST 5:46 PM PST
Astronomical Twilight 5:21 AM PST 6:16 PM PST
Moon 6:29 AM PST (1/11) 5:07 PM PST (1/11)
Length of Visible Light 10h 50m
Length of Day
9h 54m
New Moon, 0% of the Moon is Illuminated
Jan 11
New Moon
Jan 18
First Quarter
Jan 26
Full
Feb 3
Last Quarter
Feb 9
New

Hourly Weather History & Observations

Time (PST) Temp. Windchill Dew Point Humidity Pressure Visibility Wind Dir Wind Speed Gust Speed Precip Events Conditions
12:53 AM 36.0 °F 27.5 °F 8.1 °F 31% 29.97 in 10.0 mi North 12.7 mph - N/A   Clear
1:53 AM 36.0 °F 28.5 °F 5.0 °F 27% 29.99 in 10.0 mi North 10.4 mph - N/A   Clear
2:53 AM 35.1 °F 25.9 °F 5.0 °F 28% 30.00 in 10.0 mi North 13.8 mph - N/A   Clear
3:53 AM 35.6 °F 26.2 °F 6.8 °F 30% 29.93 in 10.0 mi North 15.0 mph - N/A   Clear
4:53 AM 34.0 °F 27.2 °F 7.0 °F 32% 30.03 in 10.0 mi North 8.1 mph - N/A   Clear
5:53 AM 33.1 °F 24.9 °F 8.1 °F 35% 30.05 in 10.0 mi North 10.4 mph - N/A   Clear
6:53 AM 33.1 °F 24.4 °F 9.0 °F 37% 30.09 in 10.0 mi North 11.5 mph - N/A   Clear
7:53 AM 36.0 °F 27.5 °F 10.9 °F 36% 30.10 in 10.0 mi North 12.7 mph - N/A   Clear
8:53 AM 39.0 °F 31.8 °F 10.0 °F 30% 30.12 in 10.0 mi North 11.5 mph - N/A   Clear
9:53 AM 41.0 °F 32.2 °F 7.0 °F 25% 30.11 in 10.0 mi North 18.4 mph - N/A   Clear
10:53 AM 42.1 °F 34.2 °F 5.0 °F 22% 30.10 in 10.0 mi North 16.1 mph 26.5 mph N/A   Clear
11:53 AM 42.8 °F 34.5 °F 3.2 °F 19% 30.00 in 10.0 mi North 18.4 mph 24.2 mph N/A   Clear
12:53 PM 43.0 °F 35.7 °F 3.9 °F 20% 30.06 in 10.0 mi NNW 15.0 mph 19.6 mph N/A   Mostly Cloudy
1:53 PM 43.0 °F 36.8 °F 7.0 °F 23% 30.06 in 10.0 mi NNW 11.5 mph - N/A   Mostly Cloudy
2:53 PM 43.0 °F 38.2 °F 7.0 °F 23% 30.06 in 10.0 mi NNW 8.1 mph - N/A   Overcast
3:53 PM 42.1 °F 39.2 °F 6.1 °F 23% 30.06 in 10.0 mi WNW 4.6 mph - N/A   Scattered Clouds
4:28 PM 41.0 °F 33.9 °F 10.4 °F 29% 29.98 in 10.0 mi North 12.7 mph - N/A   Scattered Clouds
4:53 PM 39.9 °F 33.4 °F 12.9 °F 33% 30.08 in 10.0 mi NNW 10.4 mph - N/A   Partly Cloudy
5:53 PM 37.9 °F 30.5 °F 15.1 °F 39% 30.09 in 10.0 mi NNW 11.5 mph - N/A   Partly Cloudy
6:53 PM 37.9 °F - 14.0 °F 38% 30.10 in 10.0 mi Calm Calm - N/A   Scattered Clouds
7:53 PM 39.0 °F 32.3 °F 3.0 °F 22% 30.09 in 10.0 mi NW 10.4 mph - N/A   Partly Cloudy
8:53 PM 37.9 °F 30.5 °F 3.9 °F 24% 30.09 in 10.0 mi NNW 11.5 mph - N/A   Partly Cloudy
9:53 PM 36.0 °F 30.3 °F 3.0 °F 25% 30.09 in 10.0 mi North 6.9 mph - N/A   Clear
10:53 PM 35.1 °F 25.9 °F 5.0 °F 28% 30.10 in 10.0 mi NNW 13.8 mph - N/A   Clear
11:53 PM 35.1 °F 26.4 °F 8.1 °F 33% 30.09 in 10.0 mi NNW 12.7 mph - N/A   Clear